Beaumont, TX

4:06 PM CDT on July 27, 2017 (GMT -0500)
Southeast Texas Regional

Weather History for KBPT - May, 2013

Change the Weather History Date:

Friday, May 31, 2013

  Actual Average Record
Temperature  
Mean Temperature 83 °F 79 °F  
Max Temperature 88 °F 88 °F 100 °F (1911)
Min Temperature 77 °F 70 °F 53 °F (1984)
Degree Days  
Heating Degree Days 0 0  
Month to date heating degree days 20 0  
Since 1 July heating degree days 1262 1401  
Cooling Degree Days 18 14  
Month to date cooling degree days 292 339  
Year to date cooling degree days 473 566  
Growing Degree Days 33 (Base 50)    
Moisture  
Dew Point 75 °F    
Average Humidity 78    
Maximum Humidity 91    
Minimum Humidity 65    
Precipitation  
Precipitation 0.10 in 0.18 in 2.55 in (1976)
Month to date precipitation 9.21 5.23  
Year to date precipitation 27.86 20.81  
Snow  
Snow 0.00 in 0.00 in 0.00 in ()
Month to date snowfall 0.0 0.0  
Since 1 July snowfall 0.0 T  
Snow Depth 0.00 in    
Sea Level Pressure  
Sea Level Pressure 29.90 in    
Wind  
Wind Speed 14 mph (South)    
Max Wind Speed 21 mph    
Max Gust Speed 26 mph    
Visibility 10 miles    
Events Rain    
T = Trace of Precipitation, MM = Missing Value Source: NWS Daily Summary

Daily Weather History Graph

Daily Weather History Graph

Search for Another Location

Airport or City:

Trip Planner

Search our weather history database for the weather conditions in past years. The results will help you decide how hot, cold, wet, or windy it might be!

Date:

Astronomy

May. 31, 2013 Rise Set
Actual Time 6:15 AM CDT 8:12 PM CDT
Civil Twilight 5:48 AM CDT 8:39 PM CDT
Nautical Twilight 5:16 AM CDT 9:11 PM CDT
Astronomical Twilight 4:41 AM CDT 9:46 PM CDT
Moon 1:07 AM CDT (5/31) 1:09 PM CDT (5/31)
Length of Visible Light 14h 50m
Length of Day
13h 56m
Waning Gibbous, 51% of the Moon is Illuminated
May 31
Waning Gibbous
May 31
Last Quarter
Jun 8
New
Jun 16
First Quarter
Jun 23
Full

Hourly Weather History & Observations

Time (CDT) Temp. Heat Index Dew Point Humidity Pressure Visibility Wind Dir Wind Speed Gust Speed Precip Events Conditions
12:53 AM 80.1 °F 84.5 °F 73.9 °F 81% 29.91 in 10.0 mi SE 15.0 mph 19.6 mph N/A   Overcast
1:45 AM 78.8 °F - 73.4 °F 83% 29.89 in 10.0 mi SSE 12.7 mph - N/A   Scattered Clouds
1:53 AM 79.0 °F - 73.9 °F 84% 29.89 in 10.0 mi SSE 16.1 mph 21.9 mph N/A   Scattered Clouds
2:46 AM 78.8 °F - 75.2 °F 89% 29.88 in 10.0 mi SSE 12.7 mph - N/A   Mostly Cloudy
2:53 AM 79.0 °F - 75.0 °F 88% 29.87 in 10.0 mi South 15.0 mph 20.7 mph N/A   Mostly Cloudy
3:29 AM 78.8 °F - 75.2 °F 89% 29.87 in 10.0 mi SSE 11.5 mph - N/A   Mostly Cloudy
3:53 AM 79.0 °F - 75.0 °F 88% 29.86 in 9.0 mi South 10.4 mph - 0.00 in Rain Light Rain
4:50 AM 78.8 °F - 75.2 °F 89% 29.88 in 5.0 mi South 15.0 mph 21.9 mph 0.02 in Rain Light Rain
4:53 AM 78.1 °F - 75.0 °F 90% 29.88 in 4.0 mi South 13.8 mph 21.9 mph 0.02 in Rain Heavy Rain
5:32 AM 78.8 °F - 75.2 °F 89% 29.88 in 10.0 mi South 11.5 mph - 0.08 in   Mostly Cloudy
5:53 AM 78.1 °F - 75.0 °F 90% 29.89 in 10.0 mi South 11.5 mph - 0.08 in   Scattered Clouds
6:53 AM 78.1 °F - 75.0 °F 90% 29.91 in 10.0 mi South 8.1 mph - N/A   Scattered Clouds
7:37 AM 80.6 °F 86.2 °F 75.2 °F 84% 29.92 in 10.0 mi South 9.2 mph - N/A   Mostly Cloudy
7:53 AM 80.1 °F 85.4 °F 75.9 °F 87% 29.92 in 10.0 mi South 11.5 mph - N/A   Mostly Cloudy
8:00 AM 80.6 °F 86.2 °F 75.2 °F 84% 29.92 in 10.0 mi South 9.2 mph - N/A   Partly Cloudy
8:34 AM 82.4 °F 89.5 °F 75.2 °F 79% 29.93 in 10.0 mi South 11.5 mph - N/A   Mostly Cloudy
8:53 AM 82.9 °F 90.8 °F 75.9 °F 79% 29.93 in 10.0 mi South 10.4 mph - N/A   Mostly Cloudy
9:05 AM 82.4 °F 89.5 °F 75.2 °F 79% 29.93 in 10.0 mi South 13.8 mph - N/A   Scattered Clouds
9:53 AM 82.0 °F 88.6 °F 75.0 °F 79% 29.94 in 10.0 mi South 10.4 mph - N/A   Partly Cloudy
10:12 AM 84.2 °F 92.3 °F 75.2 °F 74% 29.93 in 10.0 mi South 16.1 mph 19.6 mph N/A   Mostly Cloudy
10:32 AM 82.4 °F 89.5 °F 75.2 °F 79% 29.93 in 10.0 mi South 13.8 mph - N/A   Mostly Cloudy
10:53 AM 84.9 °F 94.1 °F 75.9 °F 74% 29.94 in 10.0 mi South 12.7 mph - N/A   Mostly Cloudy
11:00 AM 84.2 °F 92.3 °F 75.2 °F 74% 29.94 in 10.0 mi South 11.5 mph - N/A   Mostly Cloudy
11:53 AM 86.0 °F 93.8 °F 73.9 °F 67% 29.93 in 10.0 mi South 16.1 mph - N/A   Overcast
12:53 PM 87.1 °F 97.3 °F 75.9 °F 69% 29.93 in 10.0 mi South 16.1 mph 25.3 mph N/A   Mostly Cloudy
1:37 PM 86.0 °F 95.1 °F 75.2 °F 70% 29.92 in 10.0 mi South 18.4 mph 24.2 mph N/A   Mostly Cloudy
1:45 PM 86.0 °F 95.1 °F 75.2 °F 70% 29.92 in 10.0 mi South 16.1 mph 24.2 mph N/A   Mostly Cloudy
1:53 PM 86.0 °F 95.1 °F 75.0 °F 70% 29.91 in 10.0 mi South 16.1 mph - N/A   Mostly Cloudy
2:53 PM 86.0 °F 96.0 °F 75.9 °F 72% 29.90 in 10.0 mi SSE 16.1 mph 25.3 mph N/A   Mostly Cloudy
3:02 PM 86.0 °F 95.1 °F 75.2 °F 70% 29.90 in 10.0 mi South 18.4 mph - N/A   Mostly Cloudy
3:53 PM 86.0 °F 95.1 °F 75.0 °F 70% 29.89 in 10.0 mi South 17.3 mph 23.0 mph N/A   Mostly Cloudy
4:53 PM 84.9 °F 92.1 °F 73.9 °F 69% 29.88 in 10.0 mi South 13.8 mph 20.7 mph N/A   Mostly Cloudy
5:00 PM 84.2 °F 90.9 °F 73.4 °F 70% 29.88 in 10.0 mi SSE 16.1 mph 23.0 mph N/A   Scattered Clouds
5:03 PM 84.2 °F 90.9 °F 73.4 °F 70% 29.88 in 10.0 mi SSE 17.3 mph 23.0 mph N/A   Mostly Cloudy
5:53 PM 82.9 °F 90.2 °F 75.0 °F 77% 29.88 in 10.0 mi South 11.5 mph - N/A   Mostly Cloudy
6:53 PM 82.0 °F 88.6 °F 75.0 °F 79% 29.88 in 10.0 mi South 15.0 mph - 0.00 in   Mostly Cloudy
7:00 PM 82.4 °F 89.5 °F 75.2 °F 79% 29.88 in 10.0 mi SSE 12.7 mph 19.6 mph N/A   Clear
7:53 PM 81.0 °F 86.7 °F 75.0 °F 82% 29.88 in 10.0 mi SSE 12.7 mph - N/A   Mostly Cloudy
8:53 PM 80.1 °F 85.1 °F 75.0 °F 85% 29.88 in 10.0 mi SSE 13.8 mph - N/A   Clear
9:53 PM 80.1 °F 85.1 °F 75.0 °F 85% 29.88 in 10.0 mi SSE 11.5 mph - N/A   Partly Cloudy
10:53 PM 80.1 °F 85.1 °F 75.0 °F 85% 29.88 in 10.0 mi SSE 16.1 mph - N/A   Partly Cloudy
11:53 PM 79.0 °F - 75.0 °F 88% 29.88 in 10.0 mi SSE 16.1 mph - N/A   Partly Cloudy